This demonstration page uses our WeatherBlox Daily Observations layout. Learn more.

Left ArrowRight Arrow

39.29038, -76.61219

Hourly Observations for May 15, 2017

Temp ( °F °C ) Dew Point ( °F °C ) Humidity (%) Winds ( mph kmh ) Pressure ( in mb ) Visibility ( mi km ) Precip ( " mm )
12:54 am 00:54 undefined 61 16.1 31 -0.6 32 32 undefined N/A 29.80 1009 N/A N/A
1:54 am 01:54 undefined 58 14.4 32 undefined 38 38 undefined N/A 29.81 1010 N/A N/A
2:54 am 02:54 undefined 57 13.9 33 0.6 41 41 undefined N/A 29.81 1010 N/A N/A
3:54 am 03:54 undefined 55 12.8 34 1.1 45 45 undefined N/A 29.83 1010 N/A N/A
4:54 am 04:54 undefined 54 12.2 35 1.7 49 49 undefined N/A 29.84 1011 N/A N/A
5:54 am 05:54 undefined 53 11.7 36 2.2 52 52 undefined N/A 29.86 1011 N/A N/A
6:54 am 06:54 undefined 54 12.2 38 3.3 55 55 undefined N/A 29.90 1012 N/A N/A
7:54 am 07:54 undefined 57 13.9 39 3.9 51 51 undefined N/A 29.93 1014 N/A N/A
8:54 am 08:54 undefined 59 15 40 4.4 49 49 undefined N/A 29.92 1013 N/A N/A
9:54 am 09:54 undefined 61 16.1 40 4.4 46 46 undefined N/A 29.93 1014 N/A N/A
10:54 am 10:54 undefined 63 17.2 40 4.4 43 43 undefined N/A 29.92 1013 N/A N/A
11:54 am 11:54 undefined 66 18.9 39 3.9 37 37 undefined N/A 29.90 1012 N/A N/A
12:54 pm 12:54 undefined 69 20.6 40 4.4 35 35 undefined N/A 29.89 1012 N/A N/A
1:54 pm 13:54 undefined 71 21.7 40 4.4 32 32 undefined N/A 29.90 1013 N/A N/A
2:54 pm 14:54 undefined 74 23.3 39 3.9 28 28 undefined N/A 29.88 1012 N/A N/A
3:54 pm 15:54 undefined 74 23.3 38 3.3 27 27 undefined N/A 29.87 1011 N/A N/A
4:54 pm 16:54 undefined 75 23.9 39 3.9 27 27 undefined N/A 29.85 1011 N/A N/A
5:54 pm 17:54 undefined 75 23.9 39 3.9 27 27 undefined N/A 29.84 1011 N/A N/A
6:54 pm 18:54 undefined 75 23.9 39 3.9 27 27 undefined N/A 29.86 1011 N/A N/A
7:54 pm 19:54 undefined 75 23.9 39 3.9 27 27 undefined N/A 29.90 1013 N/A N/A
8:54 pm 20:54 undefined 71 21.7 41 5 34 34 undefined N/A 29.92 1013 N/A N/A
9:54 pm 21:54 undefined 70 21.1 42 5.6 37 37 undefined N/A 29.93 1014 N/A N/A
10:54 pm 22:54 undefined 68 20 42 5.6 39 39 undefined N/A 29.95 1014 N/A N/A
11:54 pm 23:54 undefined 66 18.9 43 6.1 43 43 undefined N/A 29.98 1015 N/A N/A

Powered by AerisWeather